R9YAAM-13 Weather Reports


time (UTC)temp
C
wind
direction
speed
KPH
gust
KPH
rain 1hr
cm
rain 24hr
cm
rain mn
cm
humidity
%
barometer
mb
20260504050225 18 0 0.0 0.0 0.00 0.00 0.00 27 994.6
20260504045224 18 0 0.0 0.0 0.00 0.00 0.00 22 994.7
20260504044224 18 0 0.0 0.0 0.00 0.00 0.00 24 994.9
20260504043225 17 0 0.0 0.0 0.00 0.00 0.00 23 994.8
20260504042124 17 0 0.0 0.0 0.00 0.00 0.00 23 994.9
20260504041124 17 0 0.0 0.0 0.00 0.00 0.00 24 995.0
20260504040124 17 0 0.0 0.0 0.00 0.00 0.00 26 994.9
20260504035124 17 0 0.0 0.0 0.00 0.00 0.00 27 994.9
20260504034024 17 0 0.0 0.0 0.00 0.00 0.00 26 995.0
20260504033025 16 0 0.0 0.0 0.00 0.00 0.00 27 995.0
20260504032025 16 0 0.0 0.0 0.00 0.00 0.00 27 994.9
20260504031025 16 0 0.0 0.0 0.00 0.00 0.00 24 995.0
20260504030040 15 0 0.0 0.0 0.00 0.00 0.00 26 995.0
20260504024925 16 0 0.0 0.0 0.00 0.00 0.00 27 995.0
20260504023925 16 0 0.0 0.0 0.00 0.00 0.00 26 994.9
20260504022824 15 0 0.0 0.0 0.00 0.00 0.00 29 994.8
20260504021724 15 0 0.0 0.0 0.00 0.00 0.00 28 994.7
20260504020724 15 0 0.0 0.0 0.00 0.00 0.00 30 994.7
20260504015625 14 0 0.0 0.0 0.00 0.00 0.00 30 994.6
20260504014625 13 0 0.0 0.0 0.00 0.00 0.00 33 994.7
20260504013624 13 0 0.0 0.0 0.00 0.00 0.00 34 994.6
20260504012525 12 0 0.0 0.0 0.00 0.00 0.00 35 994.6
20260504011425 12 0 0.0 0.0 0.00 0.00 0.00 38 994.5
20260504010439 10 0 0.0 0.0 0.00 0.00 0.00 41 994.3
20260504005324 10 0 0.0 0.0 0.00 0.00 0.00 42 994.3
20260504004325 10 0 0.0 0.0 0.00 0.00 0.00 44 994.1
20260504003325 9 0 0.0 0.0 0.00 0.00 0.00 46 994.0
20260504002324 8 0 0.0 0.0 0.00 0.00 0.00 48 994.0
20260504001224 8 0 0.0 0.0 0.00 0.00 0.00 51 994.0
20260504000226 8 0 0.0 0.0 0.00 0.00 0.00 50 993.9
20260503235124 7 0 0.0 0.0 0.00 0.00 0.00 52 993.8
20260503234124 7 0 0.0 0.0 0.00 0.00 0.00 55 993.8
20260503233024 7 0 0.0 0.0 0.00 0.00 0.00 55 993.7
20260503232024 7 0 0.0 0.0 0.00 0.00 0.00 55 993.6
20260503231024 7 0 0.0 0.0 0.00 0.00 0.00 55 993.6
20260503230025 7 0 0.0 0.0 0.00 0.00 0.00 56 993.5
20260503225025 7 0 0.0 0.0 0.00 0.00 0.00 57 993.4
20260503224024 7 0 0.0 0.0 0.00 0.00 0.00 57 993.4
20260503223024 7 0 0.0 0.0 0.00 0.00 0.00 56 993.3
20260503222023 7 0 0.0 0.0 0.00 0.00 0.00 57 993.3
20260503221023 7 0 0.0 0.0 0.00 0.00 0.00 57 993.2
20260503215923 7 0 0.0 0.0 0.00 0.00 0.00 56 993.3
20260503214923 7 0 0.0 0.0 0.00 0.00 0.00 55 993.1
20260503213923 7 0 0.0 0.0 0.00 0.00 0.00 54 993.1
20260503212823 7 0 0.0 0.0 0.00 0.00 0.00 54 993.1
20260503211823 7 0 0.0 0.0 0.00 0.00 0.00 54 993.1
20260503210823 7 0 0.0 0.0 0.00 0.00 0.00 54 993.0
20260503205723 7 0 0.0 0.0 0.00 0.00 0.00 54 992.8
20260503204722 7 0 0.0 0.0 0.00 0.00 0.00 54 992.7
20260503203722 7 0 0.0 0.0 0.00 0.00 0.00 53 992.6
20260503202622 7 0 0.0 0.0 0.00 0.00 0.00 52 992.5
20260503201623 8 0 0.0 0.0 0.00 0.00 0.00 51 992.4
20260503200522 8 0 0.0 0.0 0.00 0.00 0.00 51 992.3
20260503195522 8 0 0.0 0.0 0.00 0.00 0.00 50 992.3
20260503194523 8 0 0.0 0.0 0.00 0.00 0.00 50 992.3
20260503193422 8 0 0.0 0.0 0.00 0.00 0.00 50 992.2
20260503192423 9 0 0.0 0.0 0.00 0.00 0.00 49 992.2
20260503191422 9 0 0.0 0.0 0.00 0.00 0.00 50 992.3
20260503190423 9 0 0.0 0.0 0.00 0.00 0.00 49 992.3
20260503185438 9 0 0.0 0.0 0.00 0.00 0.00 49 992.1
20260503184323 10 0 0.0 0.0 0.00 0.00 0.00 49 992.1
20260503183322 10 0 0.0 0.0 0.00 0.00 0.00 48 991.9
20260503182222 10 0 0.0 0.0 0.00 0.00 0.00 49 991.9
20260503181222 10 0 0.0 0.0 0.00 0.00 0.00 49 991.9
20260503180222 10 0 0.0 0.0 0.00 0.00 0.00 49 991.8
20260503175222 10 0 0.0 0.0 0.00 0.00 0.00 49 991.6
20260503174123 10 0 0.0 0.0 0.00 0.00 0.00 49 991.5
20260503173122 10 0 0.0 0.0 0.00 0.00 0.00 50 991.4
20260503172122 10 0 0.0 0.0 0.00 0.00 0.00 50 991.4
20260503171022 11 0 0.0 0.0 0.00 0.00 0.00 50 991.4
20260503150622 13 0 0.0 0.0 0.00 0.00 0.00 45 990.3
20260503131322 16 0 0.0 0.0 0.00 0.00 0.00 31 989.2
20260503130322 16 0 0.0 0.0 0.00 0.00 0.00 30 989.1
20260503120222 17 0 0.0 0.0 0.00 0.00 0.00 28 989.3
20260503090423 18 0 0.0 0.0 0.00 0.00 0.00 25 990.6
20260503081222 20 0 0.0 0.0 0.00 0.00 0.00 21 991.3
20260503080122 18 0 0.0 0.0 0.00 0.00 0.00 24 991.4
20260503072922 18 0 0.0 0.0 0.00 0.00 0.00 24 991.7
20260503071922 20 0 0.0 0.0 0.00 0.00 0.00 21 991.5
20260503070922 20 0 0.0 0.0 0.00 0.00 0.00 23 991.7
20260503054522 18 0 0.0 0.0 0.00 0.00 0.00 22 992.4
20260503053522 18 0 0.0 0.0 0.00 0.00 0.00 21 992.6